LFPG

Paris/Charles de Gaulle Airport

Airport
ICAO code
LFPG
IATA Code
CDG
Summary
ICAO Region
EUR
ICAO Territory
Location

Roissy-en-France, Ile-de-France

Serving
Paris
Elevation
392 ft
Coordinates
49° 0' 31" N , 2° 32' 37" E
KCC
Airport LOS
Parallel Runway Operation
Metar
Observation
LFPG 070400Z 25004KT 2000 0400 R27L/P2000 R09R/0550U R26R/0550N R08L/0750U R26L/0400N R08R/0275N R27R/0800D R09L/0550N BCFG BR BKN001 SCT045 M00/M01 Q1020 TEMPO 0300 FG VV///
Station
Paris-Aeroport Charles De Gaulle
Date/Time
2022-12-07 04:00:00
Wind direction
250°
Wind speed
04 kts
Lowest cloud amount
broken clouds
Temperature
-0°C
Dew point
-1°C
Humidity
92%
QNH
1020 hPa
Weather condition
n/a

Description

International airport serving Paris.

Climatology

Temperate Marine climate/Oceanic climate (Köppen climate classification Cfb). Moderately cool summer and comparatively warm winter. Prevailing south-westerly winds from the Atlantic Ocean.

Runways

Designator Length Width Surface Rops
08R/26L 2700 60 CON Yes/Yes
09L/27R 2700 60 ASP Yes/Yes
09R/27L 4200 45 ASP Yes/Yes
08L/26R 4215 45 ASP Yes/Yes

SKYbrary Partners:

Safety knowledge contributed by: